Wind_Speed
3 9 11 12 9 11 12 14 15 16 15 15 15 16 16 16 17 18 16 13 12 4 8 15 10 7 7 6 2 6 9 12 13 15 17 18 19 23 26 26 24 28 32 18
11 12 8 7 8 12 14 14 17 16 16 15 16 20 21 21 21 20 15 8 5 7 6 12 13 8 7 8 6 2 8 12 14 13 16 15 19 23 26 24 26 27 30 33
12 15 15 6 11 13 14 16 16 16 18 18 20 23 20 18 17 9 5 3 6 6 5 10 14 14 13 11 10 8 4 5 11 15 16 18 21 18 21 31 27 26 26 27
8 15 5 9 12 14 14 16 17 17 17 16 17 18 20 20 19 11 12 13 12 13 12 6 13 15 17 14 10 10 8 3 3 11 15 17 19 19 21 22 29 33 33 31
16 15 13 10 11 11 14 15 15 18 19 20 20 13 18 19 3 11 11 6 5 1 3 11 14 16 15 14 16 9 4 2 4 6 11 14 17 19 22 23 26 31 34 31
17 10 11 5 10 12 8 14 17 19 17 15 20 14 15 10 14 18 11 7 4 5 10 11 10 2 7 11 2 4 11 7 6 7 12 15 18 19 21 24 28 28 29 30
18 11 7 3 8 13 11 14 9 6 9 13 19 19 14 20 20 15 12 12 12 14 9 10 8 10 7 3 9 7 12 5 7 8 11 17 18 20 22 25 23 28 28 27
9 8 14 11 7 11 14 13 8 16 13 17 19 13 15 13 19 16 22 24 19 20 19 16 19 26 29 37 5 4 8 10 9 11 12 15 21 22 22 23 23 26 29 32
8 7 24 17 11 9 11 11 14 10 14 15 14 20 19 10 16 20 22 22 22 19 15 17 19 21 28 40 34 16 13 10 10 12 15 18 21 22 19 23 26 27 28 30
6 15 12 15 7 13 18 14 10 6 7 16 16 21 16 12 16 3 5 13 2 8 17 15 12 10 7 21 30 21 16 13 11 15 15 17 21 23 23 23 27 28 30 31
12 9 12 15 16 18 16 13 12 13 11 11 13 12 16 23 24 19 16 18 15 14 10 7 9 12 12 14 32 19 19 19 16 18 19 20 20 20 22 26 28 30 32 31
10 6 11 18 23 20 14 12 13 4 12 14 14 19 19 19 22 16 17 12 9 10 10 11 17 18 22 26 16 11 15 19 21 20 19 19 21 22 23 26 29 28 28 30
8 4 8 9 8 15 18 16 19 15 12 18 16 15 20 21 17 12 12 15 9 8 7 12 13 16 21 22 17 14 15 19 18 20 22 24 23 25 27 29 30 29 32 33
4 7 10 11 18 19 20 23 23 21 8 15 15 19 21 14 18 20 17 12 16 19 19 19 16 16 21 25 19 23 21 20 20 20 23 24 24 25 29 32 32 33 33 33
4 11 15 17 21 23 24 25 24 19 20 15 17 18 19 20 21 20 18 20 22 22 21 20 19 14 21 23 23 23 23 23 22 23 24 25 27 29 30 32 32 34 33 33
8 14 18 21 23 21 23 23 16 14 12 10 16 19 20 21 21 20 22 23 24 22 23 23 20 18 23 26 29 28 25 25 25 24 27 28 29 30 28 30 33 34 33 35
12 11 13 20 22 22 19 10 16 14 17 15 15 19 19 20 20 18 18 23 24 23 23 23 22 22 27 27 26 25 27 29 27 26 27 27 27 27 30 29 32 33 31 35
9 10 10 14 18 13 7 12 11 9 14 16 14 15 18 18 21 22 23 22 20 23 22 22 22 26 26 28 28 27 27 26 25 25 26 25 25 27 29 28 31 28 32 29
10 7 10 8 11 17 9 6 8 10 16 8 13 19 22 23 23 21 16 17 21 21 20 25 29 31 32 31 28 27 25 23 22 24 25 24 24 26 25 28 29 27 30 8
5 8 7 11 17 13 9 17 12 16 10 12 21 19 18 19 15 17 23 22 21 25 27 29 34 33 29 29 26 25 24 24 24 24 22 23 25 22 24 28 26 26 5 3
11 12 13 12 15 7 7 16 14 7 10 21 18 19 20 17 17 23 23 22 27 29 32 34 29 27 27 29 27 25 24 23 23 23 24 23 19 23 26 28 24 15 3 1
13 6 9 7 11 6 22 16 5 9 16 18 19 20 19 21 20 22 23 23 23 24 31 28 29 28 29 28 26 24 23 22 21 22 20 21 22 23 22 21 21 5 5 8
4 7 5 6 7 14 16 11 14 14 17 18 20 19 21 19 21 19 21 20 20 27 29 32 28 28 29 27 25 24 23 20 19 18 19 21 22 22 19 17 10 9 9 10
14 11 7 12 8 13 13 17 18 17 19 19 17 19 19 18 19 20 19 19 18 26 26 28 28 26 27 27 24 23 23 19 17 17 20 19 16 17 12 10 10 13 12 11
8 10 5 11 13 19 13 19 19 20 19 18 18 16 16 18 18 18 18 18 21 27 28 28 26 25 28 28 26 24 19 16 16 17 15 15 12 3 15 13 11 12 9 12
4 4 4 8 14 11 17 16 18 16 19 16 17 18 19 18 18 18 17 24 26 27 31 29 29 25 27 26 24 24 18 15 15 15 13 11 2 13 17 19 17 12 9 10
Wind_Direction
316 306 296 8 15 334 310 298 297 297 293 290 290 292 285 285 281 271 271 269 265 293 114 120 123 122 140 132 2 354 3 3 9 5 358 355 346 325 318 302 286 269 264 270
271 255 15 348 320 305 292 282 281 292 310 316 306 298 294 279 266 260 247 264 315 280 157 138 151 168 186 177 176 289 352 352 354 352 345 337 334 332 325 308 310 305 260 260
318 306 325 356 306 290 283 290 300 314 315 297 286 279 285 302 297 253 176 243 285 304 255 190 161 180 198 194 181 183 190 329 338 347 342 338 336 331 338 333 333 326 327 277
309 287 326 284 279 302 300 336 332 314 306 295 319 296 287 276 260 247 201 211 217 223 209 212 175 192 190 200 196 209 194 190 309 339 334 333 323 323 327 320 319 315 308 308
290 305 331 310 304 355 306 320 309 294 282 281 279 270 282 289 246 264 246 244 258 295 241 203 220 227 208 192 203 192 149 6 324 352 324 319 316 316 312 313 310 306 303 306
269 253 254 241 327 301 275 284 300 294 281 269 270 267 280 304 314 309 289 244 251 284 244 239 216 241 219 181 190 17 19 320 342 341 320 315 308 310 311 306 301 298 301 305
327 296 93 53 320 317 319 327 314 301 318 296 317 323 319 323 309 349 12 4 338 316 306 357 327 287 269 301 179 156 224 286 303 322 319 310 306 305 301 298 298 300 300 300
315 315 25 14 303 310 297 288 276 293 302 304 317 293 293 10 13 7 6 4 15 15 18 28 22 19 19 339 342 18 307 298 312 315 310 310 306 294 292 295 300 307 303 299
321 297 334 322 314 336 313 299 294 302 288 284 286 289 286 47 48 3 355 339 341 349 1 5 23 28 34 338 310 338 320 316 315 318 314 309 306 299 301 301 295 291 292 294
300 305 303 294 310 270 259 251 280 276 289 275 285 304 294 324 1 90 331 283 289 331 347 349 342 326 305 283 304 332 329 312 303 299 301 307 301 300 298 300 297 292 290 290
311 279 288 299 285 303 318 302 264 272 281 287 295 284 324 330 334 336 345 356 349 339 341 335 315 293 287 285 283 310 305 306 316 311 309 303 296 300 302 300 294 290 288 287
323 296 294 300 293 282 266 300 302 4 296 285 296 281 304 324 328 350 351 12 353 302 302 317 289 278 264 255 311 297 309 321 311 298 305 308 313 313 309 303 296 295 291 291
354 317 316 309 319 350 320 304 300 291 277 265 285 298 328 310 27 343 331 340 316 262 271 303 321 326 316 330 310 307 304 311 321 328 317 309 312 313 308 303 299 296 298 293
159 264 267 278 292 317 305 295 292 288 294 292 289 308 295 347 352 340 354 357 336 322 329 328 329 321 326 320 337 338 334 329 321 316 310 302 302 304 301 298 295 294 288 286
221 272 280 296 301 294 301 307 310 337 323 325 329 321 334 349 340 335 341 338 331 321 318 316 314 323 318 324 335 329 326 322 317 310 304 301 299 295 293 294 293 290 286 284
311 296 304 296 295 309 303 310 341 330 311 300 337 321 357 341 338 336 338 332 321 315 314 307 315 326 320 316 316 317 311 307 306 300 292 291 291 291 291 288 287 286 283 286
289 289 305 296 303 308 304 346 321 333 340 354 326 339 352 336 325 323 328 323 312 313 317 321 319 312 308 307 306 306 303 297 289 284 282 285 287 287 288 286 283 281 283 291
271 299 293 301 306 300 40 30 4 332 321 322 355 346 316 316 324 322 321 312 319 314 312 311 310 307 310 306 303 299 292 288 284 281 281 281 282 285 283 284 282 282 290 286
216 268 285 292 304 293 2 16 334 333 309 30 335 334 325 323 313 310 321 329 312 305 306 305 304 305 305 301 300 296 292 285 283 286 282 281 282 280 281 283 284 288 294 295
270 241 259 281 284 306 5 352 331 304 292 347 333 326 322 320 310 316 331 326 321 317 309 310 306 302 301 299 299 295 291 291 291 284 283 283 277 274 280 281 288 290 239 323
319 322 301 312 308 295 36 344 351 359 311 319 320 316 322 315 313 314 325 320 315 311 309 302 300 302 299 300 297 290 289 282 284 282 278 277 273 276 274 280 279 278 46 84
306 292 298 313 304 308 351 359 357 299 304 317 322 323 310 316 318 323 322 316 315 307 304 309 310 303 301 297 292 284 281 284 284 280 276 277 275 274 274 276 283 138 117 125
319 325 301 291 282 305 341 328 331 327 320 317 318 313 325 325 326 323 315 314 310 308 313 305 300 299 297 291 286 283 282 281 278 272 272 271 271 274 268 274 147 130 133 139
305 314 302 317 317 330 332 329 329 319 318 313 318 332 337 327 326 318 314 310 310 309 306 304 301 297 295 293 286 275 276 273 267 259 263 266 272 284 286 116 143 136 145 144
329 313 286 304 329 329 327 325 316 312 313 334 336 347 339 330 322 315 309 309 307 307 306 305 297 292 290 292 288 282 269 253 253 256 256 266 277 92 100 103 116 135 161 163
351 335 324 307 328 323 316 315 299 321 338 333 348 342 338 332 317 312 310 309 308 308 309 307 301 293 288 289 285 282 273 228 227 241 240 245 155 119 114 113 104 104 132 154
Height
763 779 774 763 766 772 776 780 780 765 751 756 760 759 755 748 746 744 742 741 740 742 746 757 765 772 778 784 789 791 789 786 784 782 780 778 777 773 768 766 764 762 759 758
771 776 758 759 767 775 776 782 778 760 752 757 760 763 754 746 740 732 734 737 740 743 747 755 765 772 777 781 784 787 789 788 785 783 781 780 777 772 768 764 761 759 755 752
781 772 757 766 774 778 775 777 772 777 768 763 766 762 750 734 727 726 730 736 742 746 747 751 759 767 772 775 778 780 782 785 785 783 782 779 775 771 766 761 759 756 752 750
777 760 768 776 778 771 783 764 772 778 784 793 769 786 761 739 730 726 729 733 737 739 744 750 756 760 765 769 772 775 777 778 779 781 782 780 777 773 769 766 760 754 750 748
784 772 774 782 780 775 788 775 781 782 784 780 775 780 751 730 737 734 725 726 730 735 740 745 750 754 759 763 767 770 774 777 777 776 779 779 777 774 770 767 761 754 748 744
772 757 766 773 776 776 774 782 776 773 773 785 762 762 758 743 737 730 725 726 729 733 737 740 743 751 754 757 764 762 769 776 775 772 775 777 775 772 769 765 761 754 747 743
782 768 764 772 787 775 773 790 811 811 805 797 757 765 755 738 729 728 731 733 734 736 735 740 745 749 753 758 754 759 768 768 769 767 769 772 772 771 767 763 758 753 747 742
801 802 780 776 785 793 791 794 813 823 814 795 776 787 763 737 737 737 743 747 745 750 753 760 765 763 767 779 753 758 762 761 763 763 764 767 767 766 763 760 756 751 747 742
819 805 785 783 780 786 795 802 781 802 798 802 783 764 740 737 755 758 764 767 764 761 765 766 768 768 760 779 764 758 756 756 760 762 760 760 762 761 759 756 754 749 743 739
812 825 800 785 782 783 785 776 802 801 826 815 784 779 768 752 757 762 779 774 768 768 769 767 771 770 766 768 762 758 755 756 757 759 757 755 757 756 755 752 749 745 740 736
808 815 809 795 793 788 787 787 781 782 789 811 806 781 758 757 755 758 762 764 768 768 770 767 767 767 764 761 762 757 755 754 754 755 752 751 752 751 749 748 745 741 736 731
808 814 820 809 785 778 778 783 785 817 821 799 805 784 765 760 759 760 764 766 776 779 774 769 764 757 760 758 752 749 751 752 751 750 747 747 747 746 745 744 741 737 732 727
817 825 836 816 786 781 786 783 780 780 783 792 805 784 773 766 770 770 768 768 770 766 768 762 757 756 753 750 749 746 746 748 747 745 745 744 743 743 742 739 737 732 728 723
818 826 829 832 812 798 800 788 779 778 798 795 796 797 788 768 772 769 764 770 772 767 761 757 755 754 751 750 748 748 747 745 744 743 742 741 740 740 738 735 731 727 723 718
814 827 816 807 801 794 791 783 776 784 783 794 789 784 775 773 774 771 768 768 768 766 763 758 754 751 750 748 747 747 746 744 742 739 739 738 737 736 734 729 724 720 716 711
808 818 813 812 798 791 789 780 784 784 792 789 786 785 778 778 774 773 774 773 769 764 760 756 750 748 748 747 745 742 741 740 738 736 735 734 732 730 727 724 718 714 709 703
819 819 819 819 802 794 799 805 794 791 784 790 798 786 789 788 786 782 778 774 768 762 757 754 752 749 746 744 742 737 736 734 731 730 729 728 726 723 721 718 713 707 702 697
814 818 814 814 804 818 791 805 801 803 796 792 795 801 797 787 780 780 777 770 768 764 759 754 750 745 742 740 737 732 730 727 725 723 722 721 719 718 714 710 706 701 697 692
806 813 816 821 816 800 789 811 811 809 802 797 799 792 789 784 779 773 771 771 767 762 756 751 746 741 737 733 730 726 723 720 718 717 715 714 713 711 708 705 700 696 692 687
798 802 819 822 821 816 802 807 796 792 799 795 794 792 789 784 781 763 765 764 760 757 753 746 741 735 730 726 723 720 716 715 713 712 709 708 706 704 702 699 696 691 684 684
810 809 813 808 815 803 806 800 795 807 807 797 794 791 786 785 778 767 764 761 759 752 746 739 734 729 724 720 717 713 710 708 707 705 703 701 700 698 696 693 692 686 682 685
818 825 822 818 815 811 795 799 820 809 798 793 789 785 782 775 771 766 764 758 754 746 738 732 727 722 719 715 711 706 703 702 701 699 697 695 693 692 690 689 687 683 684 686
823 815 828 823 816 801 804 805 800 798 795 790 788 783 777 774 770 769 763 756 749 740 734 728 722 714 710 706 704 699 696 696 695 693 691 689 688 686 685 684 682 684 685 687
808 806 811 815 805 804 802 799 799 796 792 786 784 779 777 776 772 766 760 751 743 736 729 722 715 708 701 697 695 692 690 690 690 689 687 685 683 681 680 679 682 683 685 687
809 813 821 811 804 806 803 801 798 792 787 784 781 781 779 775 769 764 755 746 739 730 722 716 709 702 694 689 686 683 683 684 685 684 683 681 680 679 678 682 683 684 687 688
810 816 820 817 810 808 802 796 791 787 784 781 780 778 777 775 767 759 751 743 734 724 715 708 700 694 687 682 678 675 675 677 680 680 679 679 680 681 682 684 686 688 689 690